Notices

What's New in latest Release from April 7th, 2021:

- Updated Glossary, including Speed of Maximum Gust, and Total Hourly Precipitation

- Updated national and regional climate services offices contacts and prices information

- Addition of station inventory lists for 1981-2010, 1971-2000, and 1961-1990 Normals.

If you haven't already, please take our survey and provide feedback about our website: https://eccc.sondage-survey.ca/f/LanguageSelection.aspx?s=442ca660-fcf1-47c0-95a9-59707d6fd709

Hourly Data Report for November 21, 2019

SAINT JOHN A
NEW BRUNSWICK
Current Station Operator: NAVCAN

45°18'58.000" N
65°53'24.000" W
108.80 m
8104901
71609
YSJ

Download Data

Hourly Data (November 2019)
Hourly Data Report for November 21, 2019
TIME
LST
Temp Definition
°C
Dew Point Definition
°C
Rel Hum Definition
%
Precip. Amount Definition
mm

Wind Dir Definition
10's deg

Wind Spd Definition
km/h
Visibility Definition
km
Stn Press Definition
kPa
Hmdx Definition


Wind Chill Definition


Weather Definition


00:00 1.0 0.3 95   36 22 16.1 99.89     LegendNANA
01:00 0.4 -0.1 97   36 22 4.8 99.83     Snow
02:00 0.4 -0.1 97   36 25 4.8 99.88     Rain,Fog
03:00 0.4 -0.3 95   36 26 19.3 99.85     LegendNANA
04:00 0.5 -0.4 94   36 31 24.1 99.84     LegendNANA
05:00 0.5 -0.4 94   36 31 24.1 99.84     Cloudy
06:00 0.7 -0.3 93   36 29 24.1 99.90     LegendNANA
07:00 0.7 -0.3 93   36 18 24.1 100.06     LegendNANA
08:00 0.3 -0.4 95   36 25 3.2 100.17     Rain
09:00 0.3 -0.4 95   35 28 6.4 100.19     Rain,Snow
10:00 0.6 -0.3 94   36 27 19.3 100.17     LegendNANA
11:00 1.3 -0.2 89   36 36 24.1 100.13     Cloudy
12:00 1.7 -0.3 86   35 36 24.1 100.09     LegendNANA
13:00 2.6 -0.7 79   34 40 24.1 100.05     LegendNANA
14:00 3.2 -0.7 76   35 39 24.1 100.08     Mostly Cloudy
15:00 2.0 -0.8 81   36 29 19.3 100.12     LegendNANA
16:00 1.2 -0.4 89   34 18 4.8 100.20     Snow
17:00 1.1 -1.9 81   1 23 24.1 100.16     Mostly Cloudy
18:00 0.8 -1.9 82   33 17 24.1 100.28     LegendNANA
19:00 0.7 -2.3 80   34 14 24.1 100.30     LegendNANA
20:00 0.7 -2.7 78   34 12 24.1 100.32     Cloudy
21:00 0.5 -2.6 80   32 7 24.1 100.31     LegendNANA
22:00 -0.1 -3.0 81   35 19 24.1 100.25   -5 LegendNANA
23:00 -1.1 -3.7 83   31 9 24.1 100.19   -4 Mainly Clear

Notes on Data Quality.

Legend

  • E = Estimated
  • M = Missing
  • NA = Not Available*
  • [empty] = Indicates an unobserved value
Date modified: